, FL

(GMT )
Crestview

Weather History for KEGI - September, 2013

Change the Weather History Date:

Monday, September 16, 2013

  Actual Average Record
Temperature  
Mean Temperature 80 °F -  
Max Temperature 91 °F - - ()
Min Temperature 71 °F - - ()
Cooling Degree Days 16    
Growing Degree Days 30 (Base 50)    
Moisture  
Dew Point 73 °F    
Average Humidity 83    
Maximum Humidity 100    
Minimum Humidity 56    
Precipitation  
Precipitation 1.67 in - - ()
Sea Level Pressure  
Sea Level Pressure 30.05 in    
Wind  
Wind Speed 5 mph (ENE)    
Max Wind Speed 20 mph    
Max Gust Speed 26 mph    
Visibility 9 miles    
Events Rain , Thunderstorm    
Averages and records for this station are not official NWS values.
T = Trace of Precipitation, MM = Missing Value Source: NWS Daily Summary

Daily Weather History Graph

Daily Weather History Graph

Search for Another Location

Airport or City:

Trip Planner

Search our weather history database for the weather conditions in past years. The results will help you decide how hot, cold, wet, or windy it might be!

Date:

Astronomy

Sep. 16, 2013 Rise Set
Actual Time 6:31 AM CDT 6:49 PM CDT
Civil Twilight 6:07 AM CDT 7:14 PM CDT
Nautical Twilight 5:38 AM CDT 7:42 PM CDT
Astronomical Twilight 5:10 AM CDT 8:10 PM CDT
Moon 4:50 PM CDT (9/16) 3:26 AM CDT (9/16)
Length of Visible Light 13h 07m
Length of Day
12h 18m
Waxing Gibbous, 90% of the Moon is Illuminated
Sep 16
Waxing Gibbous
Sep 19
Full
Sep 26
Last Quarter
Oct 4
New
Oct 11
First Quarter

Hourly Weather History & Observations

Time (CDT) Temp. Heat Index Dew Point Humidity Pressure Visibility Wind Dir Wind Speed Gust Speed Precip Events Conditions
12:58 AM 72.5 °F - 70.7 °F 94% 30.07 in 10.0 mi North 2.3 mph - N/A   Clear
1:58 AM 71.8 °F - 70.5 °F 96% 30.06 in 10.0 mi NE 2.3 mph - N/A   Clear
2:58 AM 72.0 °F - 71.2 °F 98% 30.05 in 10.0 mi ENE 1.2 mph - N/A   Clear
3:58 AM 72.1 °F - 71.6 °F 98% 30.05 in 10.0 mi ENE 4.6 mph - N/A   Mostly Cloudy
4:18 AM 71.6 °F - 71.6 °F 100% 30.05 in 10.0 mi ENE 2.3 mph - N/A   Scattered Clouds
4:23 AM 71.6 °F - 71.6 °F 100% 30.06 in 10.0 mi NE 1.2 mph - N/A   Mostly Cloudy
4:43 AM 71.6 °F - 71.6 °F 100% 30.06 in 10.0 mi ENE 3.5 mph - N/A   Scattered Clouds
4:58 AM 72.5 °F - 71.8 °F 98% 30.06 in 10.0 mi North 3.5 mph - N/A   Partly Cloudy
5:58 AM 71.1 °F - 70.7 °F 99% 30.06 in 8.0 mi North 4.6 mph - N/A   Clear
6:58 AM 71.8 °F - 71.4 °F 99% 30.07 in 9.0 mi NE 3.5 mph - N/A   Clear
7:58 AM 76.6 °F - 73.9 °F 91% 30.07 in 10.0 mi NE 3.5 mph - N/A   Clear
8:55 AM 82.6 °F 89.1 °F 74.5 °F 76% 30.09 in 10.0 mi ENE 2.3 mph - N/A   Partly Cloudy
9:55 AM 86.2 °F 94.6 °F 74.5 °F 68% 30.09 in 10.0 mi ENE 6.9 mph - N/A   Scattered Clouds
10:55 AM 88.9 °F 97.1 °F 73.6 °F 60% 30.09 in 10.0 mi NE 5.8 mph - N/A   Scattered Clouds
11:55 AM 89.8 °F 97.0 °F 72.0 °F 56% 30.07 in 10.0 mi North 4.6 mph - N/A   Mostly Cloudy
12:55 PM 90.5 °F 98.6 °F 73.0 °F 56% 30.06 in 10.0 mi SSE 5.8 mph - N/A   Mostly Cloudy
1:55 PM 89.1 °F 97.5 °F 73.4 °F 60% 30.04 in 10.0 mi SSW 8.1 mph - N/A   Scattered Clouds
2:55 PM 89.8 °F 99.7 °F 74.5 °F 61% 30.01 in 10.0 mi SW 16.1 mph - N/A   Mostly Cloudy
3:10 PM 87.8 °F 95.6 °F 73.4 °F 62% 30.01 in 6.0 mi SSW 8.1 mph - N/A Rain Light Rain Showers
3:34 PM 82.4 °F 89.5 °F 75.2 °F 79% 30.00 in 10.0 mi SSW 8.1 mph - N/A   Mostly Cloudy
3:55 PM 85.3 °F 95.0 °F 76.1 °F 74% 30.01 in 10.0 mi SSW 2.3 mph - 0.10 in   Scattered Clouds
4:36 PM 89.6 °F 98.2 °F 73.4 °F 59% 30.00 in 10.0 mi WSW 4.6 mph - N/A Thunderstorm Thunderstorm
4:55 PM 89.4 °F 99.4 °F 74.8 °F 62% 30.01 in 10.0 mi WSW 6.9 mph - N/A Thunderstorm Thunderstorm
5:24 PM 87.8 °F 97.6 °F 75.2 °F 66% 30.03 in 5.0 mi ESE 8.1 mph 17.3 mph N/A Rain , Thunderstorm Light Thunderstorms and Rain
5:30 PM 82.4 °F 88.2 °F 73.4 °F 74% 30.03 in 0.5 mi East 18.4 mph 24.2 mph N/A Rain , Thunderstorm Heavy Thunderstorms and Rain
5:55 PM 73.8 °F - 70.3 °F 89% 30.03 in 2.0 mi SSE 19.6 mph 26.5 mph 1.42 in Rain , Thunderstorm Thunderstorms and Rain
6:03 PM 73.4 °F - 69.8 °F 88% 30.02 in 5.0 mi SSE 11.5 mph - N/A Rain , Thunderstorm Light Thunderstorms and Rain
6:23 PM 75.2 °F - 71.6 °F 89% 30.02 in 10.0 mi South 6.9 mph - N/A Thunderstorm Thunderstorm
6:28 PM 75.2 °F - 69.8 °F 83% 30.03 in 10.0 mi Variable 2.3 mph - N/A Rain , Thunderstorm Light Thunderstorms and Rain
6:55 PM 75.7 °F - 71.1 °F 85% 30.03 in 10.0 mi West 11.5 mph - 0.15 in   Mostly Cloudy
7:55 PM 75.6 °F - 73.2 °F 92% 30.06 in 10.0 mi NW 3.5 mph - N/A   Overcast
8:55 PM 75.2 °F - 74.1 °F 96% 30.06 in 10.0 mi South 4.6 mph - N/A   Overcast
9:55 PM 74.8 °F - 73.9 °F 97% 30.05 in 10.0 mi North 4.6 mph - N/A   Mostly Cloudy
10:55 PM 74.3 °F - 73.9 °F 99% 30.06 in 10.0 mi West 3.5 mph - N/A   Mostly Cloudy
11:55 PM 74.3 °F - 73.6 °F 98% 30.05 in 10.0 mi Calm Calm - N/A   Mostly Cloudy